{"data":{"norad_id":63447,"epoch":"2026-05-24T23:53:33.819648Z","epoch_age_seconds":89525,"freshness":"FRESH","line1":"1 63447U 25069Q   26144.99553032  .00011756  00000+0  40833-3 0  9999","line2":"2 63447  53.1591 148.3144 0001422  77.3516 282.7644 15.30205687 64979","mean_motion":15.30205687,"eccentricity":0.0001422,"inclination_deg":53.1591,"raan_deg":148.3144,"arg_perigee_deg":77.3516,"mean_anomaly_deg":282.7644,"bstar":0.00040833,"rev_number":6497,"period_min":94.104995964507,"perigee_km":474.22354486533,"apogee_km":476.17263336467,"semimajor_km":6853.335089115,"source":"CELESTRAK","updated_at":"2026-05-25T13:38:20.000908Z"}}